[Iaude] MPEC S90: 2016 SW3 [a=2.19,e=0.56,i=6.4,H=28.3]

mpec at si.edu mpec at si.edu
Thu Sep 29 15:20:09 EDT 2016


M.P.E.C. 2016-S90                                Issued 2016 Sept. 28, 16:22 UT
 
     The Minor Planet Electronic Circulars contain information on unusual
         minor planets and routine data on comets.  They are published
    on behalf of Division F of the International Astronomical Union by the
          Minor Planet Center, Smithsonian Astrophysical Observatory,
                          Cambridge, MA 02138, U.S.A.

             Prepared using the Tamkin Foundation Computer Network

                              MPC at CFA.HARVARD.EDU
            URL http://www.minorplanetcenter.net/    ISSN 1523-6714


                                   2016 SW3
 
Observations:
     K16S03W* C2016 09 27.38014 02 15 48.05 +19 29 52.3                qES090G96
     K16S03W  C2016 09 27.38442 02 15 47.21 +19 33 55.5          18.5 VqES090G96
     K16S03W  C2016 09 27.38871 02 15 46.32 +19 38 00.4          18.7 VqES090G96
     K16S03W  C2016 09 27.39298 02 15 45.43 +19 42 01.0          18.9 VqES090G96
     K16S03W  C2016 09 27.50559 02 15 28.42 +21 18 09.2          19.5 VqES090G96
     K16S03W  C2016 09 27.50575 02 15 28.40 +21 18 17.1          19.1 VqES090G96
     K16S03W  C2016 09 27.50587 02 15 28.40 +21 18 23.1          18.8 VqES090G96
     K16S03W  C2016 09 27.50599 02 15 28.40 +21 18 28.5          19.2 VqES090G96
     K16S03W 2C2016 09 27.60588302 15 53.075+22 37 16.32         19.4 RtES090568
     K16S03W 2C2016 09 27.60625702 15 53.018+22 37 31.38         19.3 RtES090568
     K16S03W 2C2016 09 27.60691002 15 52.913+22 37 57.92         19.1 RtES090568
     K16S03W KC2016 09 27.84231 02 17 54.28 +24 51 42.2          19.3 RqES090104
     K16S03W KC2016 09 27.84643 02 17 54.38 +24 53 59.1          20.0 RqES090104
     K16S03W KC2016 09 27.85058 02 17 54.49 +24 56 15.6          19.3 RqES090104
     K16S03W KC2016 09 27.85636 02 17 54.52 +24 59 24.2          19.7 RqES090104
     K16S03W KC2016 09 27.87727 02 17 47.94 +25 10 24.9          18.7 RoES090461
     K16S03W KC2016 09 27.88373 02 17 47.62 +25 13 48.3          18.2 RoES090461
     K16S03W KC2016 09 27.88917 02 17 52.74 +25 14 43.0                qES090J95
     K16S03W KC2016 09 27.89393 02 17 52.88 +25 17 11.1                qES090J95
     K16S03W KC2016 09 27.89909 02 17 52.88 +25 19 51.6          19.2 RqES090J95
     K16S03W tC2016 09 27.92826 02 17 46.79 +25 35 52.3                qES090246
     K16S03W tC2016 09 27.92883 02 17 46.73 +25 36 12.8                qES090246
     K16S03W KC2016 09 28.17105102 17 52.555+27 30 45.91         20.0 RUES090Y28
     K16S03W KC2016 09 28.17163002 17 52.411+27 30 58.46         20.0 RUES090Y28
 
Observer details:
104 San Marcello Pistoiese.  Observers P. Bacci, M. Garozzo.  Measurers
    P. Bacci, L. Tesi, G. Fagioli.  0.60-m f/4 reflector + CCD.
246 Klet Observatory-KLENOT.  Observers M. Tichy, J. Ticha.  Measurer M. Tichy.
    1.06-m KLENOT Telescope + CCD.
461 University of Szeged, Piszkesteto Stn. (Konkoly).  Observer A. Sodor.
    Measurer K. Sarneczky.  0.60-m Schmidt + CCD.
568 Mauna Kea.  Observer Y. Ramanjooloo.  Measurer D. J. Tholen.  2.24-m
    University of Hawaii reflector.
G96 Mt. Lemmon Survey.  Observer E. J. Christensen.  Measurers
    E. J. Christensen, D. C. Fuls, A. R. Gibbs, A. D. Grauer, J. A. Johnson,
    R. A. Kowalski, S. M. Larson, G. J. Leonard, R. G. Matheny, R. L. Seaman,
    F. C. Shelly.  1.5-m reflector + 10K CCD.
J95 Great Shefford.  Observer P. Birtwhistle.  0.40-m f/6.0 Schmidt-Cassegrain
    + CCD.
Y28 OASI, Nova Itacuruba.  Observers P. Arcoverde, F. Monteiro, H. Medeiros,
    D. Lazzaro, R. Souza, T. Rodrigues.  Measurer M. Micheli.  1.0-m f/7
    reflector + CCD.
 
Orbital elements:
2016 SW3                                                 Earth MOID = 0.0023 AU
Epoch 2016 July 31.0 TT = JDT 2457600.5                 MPC
M 349.27451              (2000.0)            P               Q
n   0.30497921     Peri.  330.93464     +0.90862521     +0.41752416
a   2.1858611      Node     4.41349     -0.35833565     +0.79005189
e   0.5599467      Incl.    6.40936     -0.21446628     +0.44887814
P   3.23           H   28.3           G   0.15           U   5
Residuals in seconds of arc
160927 G96  0.3-  1.7+    160927 568  0.0   0.0     160927 461  0.0   0.7+
160927 G96  0.5+  0.6-    160927 568  0.0   0.1-    160927 J95  0.1-  0.2+
160927 G96  0.5+  0.0     160927 568  0.1-  0.1+    160927 J95  0.5+  0.3-
160927 G96  0.4+  0.7-    160927 104  0.4+  0.3-    160927 J95  0.5-  0.1+
160927 G96  0.0   0.5-    160927 104  0.1+  0.4+    160927 246  0.0   2.4-
160927 G96  0.1-  0.1-    160927 104  0.3+  0.3+    160927 246  0.1-  1.2+
160927 G96  0.0   0.3+    160927 104  0.3-  0.1-    160928 Y28  0.2+  0.1+
160927 G96  0.1+  0.1+    160927 461  0.3-  0.3+    160928 Y28  0.2+  0.1-

Ephemeris:
2016 SW3                 a,e,i = 2.19, 0.56, 6                   q = 0.9619
Date    TT    R. A. (2000) Decl.     Delta      r     Elong.  Phase     V
2016 08 29    14 10 35.4 -37 55 34   0.1647  0.9653    69.7   101.1    28.0
...
2016 09 13    14 19 58.5 -40 13 17   0.07815 0.9689    59.5   116.5    27.3
...
2016 09 21    14 23 25.5 -43 32 18   0.03091 0.9868    55.5   123.0    25.8
...
2016 09 27    02 13 45.4 +11 11 53   0.0053861.0069   149.0    30.8    18.3
2016 09 28    02 17 29.8 +26 14 30   0.01096 1.0107   142.6    37.1    20.0
2016 09 29    02 18 47.3 +31 00 39   0.01677 1.0147   140.3    39.1    21.0
...
2016 10 05    02 19 36.8 +36 49 32   0.05227 1.0412   141.1    37.1    23.5
...
2016 10 13    02 17 40.4 +37 32 57   0.1006  1.0833   146.8    30.2    24.8
...
2016 10 28    02 12 50.3 +36 13 51   0.1976  1.1779   156.9    19.4    26.1

A. U. Tomatic                (C) Copyright 2016 MPC           M.P.E.C. 2016-S90




More information about the Iaude mailing list